{"data":{"norad_id":64012,"epoch":"2026-09-20T12:14:32.997696Z","epoch_age_seconds":142668,"freshness":"FRESH","line1":"1 64012U 25101U   26263.51010414  .00001810  00000+0  75297-4 0  9990","line2":"2 64012  43.0026 337.4445 0001731 279.9061  80.1595 15.27577362 76855","mean_motion":15.27577362,"eccentricity":0.0001731,"inclination_deg":43.0026,"raan_deg":337.4445,"arg_perigee_deg":279.9061,"mean_anomaly_deg":80.1595,"bstar":7.5297e-5,"rev_number":7685,"period_min":94.266911504545,"perigee_km":481.86932249147,"apogee_km":484.2446678526,"semimajor_km":6861.193995172,"source":"CELESTRAK","updated_at":"2026-09-21T09:00:35.183583Z"}}